Date String (YYYY-MM-DD hh:mm:ss) UTC,Instrument flags,Ambient pressure (hPa),Sample flow (lpm),Bypass flow (lpm),Sample temperature (°C),Ambient temperature (°C),ASC tube jacket temperature (°C),LED temperature (°C),Box temperature (°C),Sample RH (%),Span deviation,Mass concentration (μg/m³),Mass concentration (μg/m³),Mass concentration (μg/m³)
DateTimeUTC,F1_M11,P_M11,Q1_M11,Q2_M11,T1_M11,T2_M11,T3_M11,T4_M11,T5_M11,U1_M11,ZSPAN_M11,X0_M11,X2_M11,X1_M11
2022-09-15 13:00:00,,0826.2,4.99,0.00,30.5,29.1,00.0,39.3,32.3,23.7,0000.0,0007.98,0003.28,0002.52
2022-09-15 13:01:00,,0826.1,5.02,0.00,30.6,29.1,00.0,39.3,32.4,23.8,0000.0,0008.78,0003.34,0002.53
2022-09-15 13:02:00,,0826.2,4.99,0.00,30.6,29.2,00.0,39.3,32.4,23.8,0000.0,0009.81,0003.36,0002.55
2022-09-15 13:03:00,,0826.2,5.00,0.00,30.6,29.2,00.0,39.3,32.4,23.8,0000.0,0010.11,0003.40,0002.57
2022-09-15 13:04:00,,0826.2,4.99,0.00,30.6,29.2,00.0,39.3,32.4,23.8,0000.0,0010.04,0003.49,0002.60
2022-09-15 13:05:00,,0826.3,5.00,0.00,30.6,29.2,00.0,39.4,32.4,23.8,0000.0,0010.53,0003.59,0002.63
2022-09-15 13:06:00,,0826.2,5.00,0.00,30.6,29.2,00.0,39.4,32.4,23.8,0000.0,0011.05,0003.62,0002.65
2022-09-15 13:07:00,,0826.3,5.01,0.00,30.6,29.2,00.0,39.4,32.4,23.9,0000.0,0010.92,0003.65,0002.66
2022-09-15 13:08:00,,0826.4,4.99,0.00,30.6,29.3,00.0,39.4,32.5,23.9,0000.0,0011.36,0003.74,0002.70
2022-09-15 13:09:00,,0826.4,5.00,0.00,30.6,29.2,00.0,39.4,32.5,24.0,0000.0,0011.93,0003.77,0002.69
2022-09-15 13:10:00,,0826.5,5.00,0.00,30.7,29.2,00.0,39.4,32.5,24.1,0000.0,0012.51,0003.81,0002.70
2022-09-15 13:11:00,,0826.5,5.01,0.00,30.7,29.3,00.0,39.4,32.5,24.2,0000.0,0012.69,0003.80,0002.70
2022-09-15 13:12:00,,0826.5,4.99,0.00,30.7,29.3,00.0,39.4,32.5,24.2,0000.0,0012.07,0003.75,0002.69
2022-09-15 13:13:00,,0826.5,5.00,0.00,30.7,29.3,00.0,39.4,32.5,24.2,0000.0,0011.27,0003.75,0002.68
2022-09-15 13:14:00,,0826.5,5.01,0.00,30.7,29.3,00.0,39.4,32.5,24.2,0000.0,0010.82,0003.70,0002.66
2022-09-15 13:15:00,,0826.5,4.98,0.00,30.7,29.3,00.0,39.5,32.5,24.2,0000.0,0010.91,0003.65,0002.65
2022-09-15 13:16:00,,0826.5,5.01,0.00,30.7,29.3,00.0,39.5,32.5,24.2,0000.0,0010.78,0003.62,0002.63
2022-09-15 13:17:00,,0826.5,4.99,0.00,30.7,29.3,00.0,39.5,32.5,24.2,0000.0,0010.84,0003.59,0002.62
2022-09-15 13:18:00,,0826.5,5.01,0.00,30.7,29.3,00.0,39.5,32.5,24.2,0000.0,0011.07,0003.57,0002.61
2022-09-15 13:19:00,,0826.5,4.99,0.00,30.7,29.3,00.0,39.5,32.5,24.2,0000.0,0010.79,0003.53,0002.57
2022-09-15 13:20:00,,0826.6,4.99,0.00,30.8,29.3,00.0,39.5,32.6,24.1,0000.0,0010.43,0003.52,0002.57
2022-09-15 13:21:00,,0826.6,5.01,0.00,30.8,29.4,00.0,39.5,32.6,24.0,0000.0,0010.31,0003.52,0002.57
2022-09-15 13:22:00,,0826.7,4.99,0.00,30.8,29.4,00.0,39.5,32.5,24.0,0000.0,0010.24,0003.56,0002.55
2022-09-15 13:23:00,,0826.7,5.01,0.00,30.8,29.3,00.0,39.5,32.5,24.1,0000.0,0010.72,0003.59,0002.54
2022-09-15 13:24:00,,0826.7,4.99,0.00,30.8,29.3,00.0,39.5,32.6,24.0,0000.0,0011.21,0003.60,0002.52
2022-09-15 13:25:00,,0826.7,5.00,0.00,30.8,29.4,00.0,39.5,32.6,23.9,0000.0,0012.28,0003.63,0002.50
2022-09-15 13:26:00,,0826.7,5.00,0.00,30.8,29.4,00.0,39.6,32.6,23.8,0000.0,0012.28,0003.66,0002.50
2022-09-15 13:27:00,,0826.7,4.99,0.00,30.8,29.4,00.0,39.6,32.6,23.8,0000.0,0012.06,0003.64,0002.50
2022-09-15 13:28:00,,0826.8,5.01,0.00,30.8,29.4,00.0,39.6,32.6,23.8,0000.0,0011.54,0003.66,0002.50
2022-09-15 13:29:00,,0826.8,5.00,0.00,30.8,29.4,00.0,39.6,32.6,23.9,0000.0,0011.12,0003.65,0002.50
2022-09-15 13:30:00,,0826.8,5.00,0.00,30.8,29.4,00.0,39.6,32.6,24.2,0000.0,0011.05,0003.62,0002.48
2022-09-15 13:31:00,,0826.8,4.99,0.00,30.8,29.4,00.0,39.6,32.6,24.0,0000.0,0010.92,0003.60,0002.46
2022-09-15 13:32:00,,0826.8,5.00,0.00,30.8,29.4,00.0,39.6,32.6,23.8,0000.0,0010.47,0003.56,0002.45
2022-09-15 13:33:00,,0826.8,5.00,0.00,30.8,29.4,00.0,39.6,32.6,23.9,0000.0,0009.97,0003.54,0002.46
2022-09-15 13:34:00,,0826.8,4.99,0.00,30.9,29.4,00.0,39.6,32.6,24.1,0000.0,0009.50,0003.51,0002.46
2022-09-15 13:35:00,,0826.8,5.00,0.00,30.9,29.5,00.0,39.6,32.6,24.2,0000.0,0008.74,0003.48,0002.48
2022-09-15 13:36:00,,0826.8,5.00,0.00,30.9,29.5,00.0,39.6,32.6,24.1,0000.0,0007.94,0003.49,0002.49
2022-09-15 13:37:00,,0826.8,4.99,0.00,30.9,29.5,00.0,39.6,32.6,24.0,0000.0,0008.59,0003.45,0002.48
2022-09-15 13:38:00,,0826.8,5.01,0.00,30.9,29.5,00.0,39.6,32.6,24.1,0000.0,0009.09,0003.46,0002.48
2022-09-15 13:39:00,,0826.8,4.98,0.00,30.9,29.5,00.0,39.6,32.6,24.1,0000.0,0009.02,0003.42,0002.49
2022-09-15 13:40:00,,0826.8,5.00,0.00,30.9,29.5,00.0,39.7,32.7,24.1,0000.0,0009.39,0003.44,0002.49
2022-09-15 13:41:00,,0826.7,5.00,0.00,30.9,29.5,00.0,39.7,32.7,24.0,0000.0,0009.39,0003.46,0002.49
2022-09-15 13:42:00,,0826.8,4.99,0.00,30.9,29.5,00.0,39.7,32.7,24.3,0000.0,0009.16,0003.42,0002.50
2022-09-15 13:43:00,,0826.8,5.01,0.00,30.9,29.5,00.0,39.7,32.7,24.6,0000.0,0008.99,0003.40,0002.48
2022-09-15 13:44:00,,0826.8,4.99,0.00,30.9,29.5,00.0,39.7,32.7,24.7,0000.0,0008.97,0003.40,0002.48
2022-09-15 13:45:00,,0826.9,5.01,0.00,30.9,29.5,00.0,39.7,32.7,24.5,0000.0,0008.90,0003.42,0002.46
2022-09-15 13:46:00,,0826.9,4.99,0.00,30.9,29.6,00.0,39.7,32.7,24.5,0000.0,0009.07,0003.48,0002.46
2022-09-15 13:47:00,,0827.1,5.00,0.00,31.0,29.6,00.0,39.7,32.7,24.5,0000.0,0008.96,0003.46,0002.45
2022-09-15 13:48:00,,0826.9,5.01,0.00,31.0,29.6,00.0,39.7,32.7,24.7,0000.0,0008.22,0003.46,0002.46
2022-09-15 13:49:00,,0827.0,4.99,0.00,31.0,29.6,00.0,39.7,32.7,24.9,0000.0,0007.80,0003.46,0002.44
2022-09-15 13:50:00,,0826.9,5.01,0.00,31.0,29.6,00.0,39.7,32.7,24.9,0000.0,0008.05,0003.44,0002.42
2022-09-15 13:51:00,,0826.9,5.01,0.00,31.0,29.6,00.0,39.7,32.8,25.0,0000.0,0007.59,0003.40,0002.41
2022-09-15 13:52:00,,0826.9,4.98,0.00,31.0,29.6,00.0,39.7,32.7,25.4,0000.0,0007.82,0003.37,0002.40
2022-09-15 13:53:00,,0826.9,5.01,0.00,31.0,29.6,00.0,39.7,32.8,25.2,0000.0,0008.45,0003.38,0002.40
2022-09-15 13:54:00,,0826.9,4.99,0.00,31.0,29.6,00.0,39.8,32.8,25.2,0000.0,0008.53,0003.40,0002.41
2022-09-15 13:55:00,,0826.9,5.01,0.00,31.0,29.6,00.0,39.8,32.8,25.0,0000.0,0008.47,0003.40,0002.41
2022-09-15 13:56:00,,0826.9,5.01,0.00,31.0,29.0,00.0,39.8,32.8,25.2,0000.0,0008.72,0003.36,0002.41
2022-09-15 13:57:00,,0826.9,5.00,0.00,31.0,27.6,00.0,39.7,32.7,25.4,0000.0,0008.73,0003.28,0002.40
2022-09-15 13:58:00,,0826.9,5.00,0.00,31.0,27.1,00.0,39.6,32.6,25.3,0000.0,0009.40,0003.25,0002.39
2022-09-15 13:59:00,,0826.9,5.01,0.00,30.9,27.3,00.0,39.6,32.4,25.3,0000.0,0009.34,0003.23,0002.38
